Location: Eagle Observatory
(42.5300°N, 88.2800°W)
Time: 11:54:25
(UTC-05:00)

HST - Visible Passes

Search period start: 31 October 2014 00:00
Search period end: 09 November 2014 23:00
Orbit: 546 x 550 km, 28.5° (Epoch: 30 October)

Date Brightness Start Highest point End Pass type
(mag) Time Alt. Az. Time Alt. Az. Time Alt. Az.
31 Oct 3.3 19:05:15 10° SSW 19:06:40 12° S 19:08:06 10° SSE visible
01 Nov 3.4 18:58:01 10° SSW 18:59:10 11° S 19:00:18 10° S visible
02 Nov 3.6 17:51:22 10° SSW 17:51:39 10° S 17:51:56 10° S visible
